Location: Villingen
(48.0639°N, 8.4609°E)
Time: 04:31:21
(UTC+01:00)

ISS - Pass Details

Date: 06 January 2018
Orbit: 401 x 406 km, 51.6° (Epoch: 17 January)

Event Time Altitude Azimuth Distance (km) Brightness Sun altitude
Exits shadow 06:48:22 26° 309° (NW) 831 -2.8 -13.9°
Maximum altitude 06:49:46 43° 5° (N) 582 -3.2 -13.7°
Drops below altitude 10° 06:52:56 10° 79° (ENE) 1,468 0.0 -13.2°
Sets 06:55:05 0° 86° (E) 2,329 1.4 -12.8°
